Terminal Aerodrome Forecast
Issued by NWS

Home | Current Version | Previous Version | Text Only | Print | Product List | Glossary On
Versions: 1 2 3 4 5 6 7 8 9 10 11 12 13 14 15 16
000
FTUS41 KBTV 210500
TAFRUT
TAF
KRUT 210520Z 2106/2206 15007KT P6SM OVC050
     FM211300 17012KT P6SM OVC035
     FM220100 16005KT P6SM -SHRA BKN040
     FM220300 18004KT 6SM -SHRA BR OVC020
     FM220500 28004KT 5SM BR OVC020
      AMD LTD TO CLD VIS AND WIND=

USA.gov is the U.S. government's official web portal to all federal, state and local government web resources and services.